Regional Weather Roundup
Issued by NWS

Home | Current Version | Previous Version | Text Only | Print | Product List | Glossary On
Versions: 1 2 3 4 5 6 7 8 9 10 11 12 13 14 15 16 17 18 19 20 21 22 23 24 25 26 27 28 29 30 31 32 33 34 35 36 37 38 39 40 41 42 43 44
000
ASUS44 KLIX 230513
RWRLA
LOUISIANA WEATHER ROUNDUP
NATIONAL WEATHER SERVICE NEW ORLEANS LA
1100 PM CST THU FEB 22 2018

NOTE: "FAIR" INDICATES FEW OR NO CLOUDS BELOW 12,000 FEET WITH NO
      SIGNIFICANT WEATHER AND/OR OBSTRUCTIONS TO VISIBILITY.
      SKY/WX - SKY CONDITION AND SIGNIFICANT WEATHER.
      TMP - AIR TEMPERATURE.    DP   - DEWPOINT TEMPERATURE.
      RH  - RELATIVE HUMIDITY.  PRES - PRESSURE.
      HX  - HEAT INDEX.         WCI  - WIND CHILL INDEX.

*  THESE STATIONS ARE NOT NWS OR FAA STATIONS AND ARE NOT UNDER
   NWS QUALITY CONTROL.

LAZ040-048-061>063-065-066-069-230600-
SOUTHEAST LOUISIANA

CITY           SKY/WX    TMP DP  RH WIND       PRES   REMARKS
N.O. INTL ARPT FAIR      73  71  93 SE13      30.30S
N.O. LAKEFRONT CLOUDY    73  70  90 SE15      30.31S
N.O. DOWNTOWN* CLOUDY    73  70  90 VRB7      30.31S
RESERVE*       FAIR      73  68  85 SE7       30.29F
SLIDELL        CLOUDY    73  69  87 SE12      30.31S
BATON ROUGE    CLOUDY    74  68  81 SE10      30.28S
BOOTHVILLE     FAIR      68  67  96 E7        30.31F FOG
BELLE CHASSE   MOCLDY    73  72  96 SE8       30.30S
BOGALUSA*      MOCLDY    73  66  80 S8        30.32S
GALLIANO*      FAIR      73  67  80 SE6       30.29S
NEW ROADS*     FAIR      69  62  77 SE3       30.28S
GONZALES*      CLOUDY    73  70  88 SE8       30.28R
HAMMOND*       CLOUDY    72  70  94 SE13G18   30.30S
HOUMA*         FAIR      72  69  93 E8        30.28F
PORT FOURCHON* CLEAR     73  72  94 E7        30.29S

$$

LAZ041-044-053-054-230600-
SOUTHWEST LOUISIANA

CITY           SKY/WX    TMP DP  RH WIND       PRES   REMARKS
LAKE CHARLES   CLOUDY    73  71  93 S12       30.24S
LAFAYETTE      FAIR      73  70  90 S6        30.26S
PATTERSON      CLOUDY    72  70  93 SE5       30.28S
SALT POINT       N/A     71  70  96 SE6       30.25S
NEW IBERIA     FAIR      70  67  90 SE7       30.27S
CHENAULT AIRPK CLOUDY   N/A N/A N/A SE9       30.25S

$$

LAZ027-028-230600-
CENTRAL LOUISIANA

CITY           SKY/WX    TMP DP  RH WIND       PRES   REMARKS
FORT POLK      CLOUDY    71  69  93 SE9       30.23S
ALEXANDRIA INT CLOUDY    69  68  96 S9        30.23S
ALEXANDRIA     FAIR      70  68  93 S6        30.25S

$$

LAZ001-002-230600-
NORTHWEST LOUISIANA

CITY           SKY/WX    TMP DP  RH WIND       PRES   REMARKS
SHREVEPORT     LGT RAIN  55  55 100 N3        30.23R
BARKSDALE AFB  LGT RAIN  54  54 100 NW14      30.22R
DTN SHREVEPORT   N/A    N/A N/A N/A MISG      30.23S

$$

LAZ014-016-230600-
NORTHEAST LOUISIANA

CITY           SKY/WX    TMP DP  RH WIND       PRES   REMARKS
MONROE         FAIR      57  56  96 CALM      30.25S
TALLULAH       FAIR      72  67  84 S17       30.26R

$$





USA.gov is the U.S. government's official web portal to all federal, state and local government web resources and services.